Location: Amsterdam
(30.7274°N, 84.4357°W)
Time: 23:57:18
(UTC+00:00)

Tiros 1 despin weight - Pass Details

Date: 21 February 2026
Orbit: 556 x 593 km, 48.2° (Epoch: 9 March)

Event Time Altitude Azimuth Distance (km) Brightness Sun altitude
Rises 03:01:30 0° 298° (WNW) 2,733 ? -45.8°
Enters shadow 03:01:32 - 298° (WNW) 2,721 ? -45.8°
Reaches altitude 10° 03:03:59 10° 286° (WNW) 1,839 - -46.3°
Maximum altitude 03:07:32 27° 228° (SW) 1,093 - -47.0°
Drops below altitude 10° 03:11:07 10° 170° (S) 1,847 - -47.8°
Sets 03:13:37 0° 158° (SSE) 2,747 - -48.3°
